Portada
METAR-TAF:

METAR-TAF

Aeroports :

Schoolcraft County Airport

Manistique, Michigan, Estats Units d'Amèrica

latitud: 45-58-29N, longitud: 086-10-19W, altitud: 209 m

Observació

L'informe es va fer fa 15 minuts, a les 11:35 UTC
Vent 12 kt del Sud-Oest amb ràfegues de 21 kt, variant entre Sud i Oest
Temperatura 5°C
Humitat 60%
Pressió 1011 hPa
Visibilitat: 16.1 km
Cel cobert a una alçada de 7000 ft

METAR: KISQ 161135Z AUTO 23012G21KT 190V260 10SM OVC070 05/M02 A2986 RMK AO2 T00501020

Hora: 07:50 (11:50 UTC)


TAF: manca

Observacions i pronòstics meteorològics de més de 4000 aeroports (METAR i TAF).

Les estacions disponibles són els punts grocs i vermells al mapa.

Posi el ratolí al punt desitjat per veure el nom de l'estació.

Feu clic per veure les observacions i els pronòstics meteorològics.

Per canviar el mapa: feu clic els botons verds amb una creu de color negre per apropar; al botó verd amb un guió per allunyar la imatge; o en les fletxes verdes per a mapes adjacents.


METAR-TAF: